JBU693 KPDX-KLGB

Flight info

Callsign JBU693
Flight time N/A
Altitude 35000
Route HRMNS6 HYJOE BORDY REBRG PCIFC3
Aircraft A321/M-SDE3FGHIRWY/LB1

Departure

Time N/A
Airport Portland International Airport (KPDX)

Arrival

Time 2026-05-03 21:19
Airport Long Beach International Airport (KLGB)
Time Latitude Longitude Altitude Speed Heading
2026-05-03 20:15 39.53091 -120.63901 34905 ft 438 kts 165°
2026-05-03 20:15 39.47154 -120.62107 34892 ft 438 kts 165°
2026-05-03 20:16 39.41211 -120.60313 34891 ft 439 kts 164°
2026-05-03 20:16 39.35271 -120.58511 35057 ft 439 kts 164°
2026-05-03 20:17 39.29327 -120.56719 35056 ft 439 kts 164°
2026-05-03 20:17 39.23415 -120.54947 35042 ft 439 kts 164°
2026-05-03 20:18 39.17464 -120.53158 35030 ft 439 kts 164°
2026-05-03 20:18 39.11516 -120.51364 35000 ft 439 kts 164°
2026-05-03 20:19 39.05561 -120.49588 34965 ft 439 kts 164°
2026-05-03 20:19 38.99606 -120.47812 34957 ft 440 kts 164°
2026-05-03 20:20 38.93681 -120.46039 34957 ft 440 kts 164°
2026-05-03 20:20 38.87715 -120.44257 34966 ft 440 kts 164°
2026-05-03 20:21 38.81742 -120.42485 34980 ft 440 kts 165°
2026-05-03 20:21 38.75770 -120.40721 34981 ft 440 kts 164°
2026-05-03 20:22 38.69828 -120.38956 34964 ft 443 kts 164°
2026-05-03 20:22 38.63817 -120.37169 34951 ft 444 kts 165°
2026-05-03 20:23 38.57805 -120.35386 34950 ft 443 kts 165°
2026-05-03 20:23 38.51789 -120.33614 34956 ft 443 kts 165°
2026-05-03 20:24 38.45780 -120.31852 34950 ft 443 kts 165°
2026-05-03 20:24 38.39809 -120.30101 34973 ft 443 kts 165°
2026-05-03 20:25 38.33800 -120.28333 34973 ft 443 kts 165°
2026-05-03 20:25 38.27787 -120.26570 34970 ft 443 kts 165°
2026-05-03 20:26 38.21785 -120.24821 34972 ft 442 kts 166°
2026-05-03 20:26 38.15840 -120.23088 34969 ft 441 kts 166°
2026-05-03 20:27 38.09863 -120.21350 34962 ft 440 kts 166°
2026-05-03 20:27 38.03897 -120.19610 34962 ft 440 kts 167°
2026-05-03 20:28 37.97932 -120.17884 34956 ft 440 kts 167°
2026-05-03 20:28 37.92012 -120.16173 34954 ft 439 kts 167°
2026-05-03 20:29 37.86055 -120.14442 34955 ft 439 kts 168°
2026-05-03 20:29 37.80091 -120.12716 34951 ft 440 kts 168°
2026-05-03 20:30 37.74118 -120.10993 34945 ft 440 kts 167°
2026-05-03 20:30 37.68158 -120.09270 34947 ft 439 kts 169°
2026-05-03 20:31 37.62238 -120.07573 34956 ft 440 kts 169°
2026-05-03 20:31 37.56272 -120.05862 34955 ft 440 kts 169°
2026-05-03 20:32 37.50300 -120.04148 34951 ft 440 kts 171°
2026-05-03 20:32 37.44329 -120.02437 34944 ft 441 kts 170°
2026-05-03 20:33 37.38381 -120.00747 34946 ft 441 kts 171°
2026-05-03 20:33 37.32387 -119.99043 34950 ft 442 kts 170°
2026-05-03 20:34 37.26380 -119.97334 34943 ft 443 kts 171°
2026-05-03 20:34 37.20368 -119.95621 34951 ft 443 kts 171°
2026-05-03 20:35 37.14388 -119.93925 34956 ft 444 kts 172°
2026-05-03 20:35 37.08362 -119.92223 34947 ft 444 kts 173°
2026-05-03 20:36 37.02331 -119.90521 34959 ft 445 kts 173°
2026-05-03 20:36 36.96291 -119.88815 34967 ft 445 kts 173°
2026-05-03 20:37 36.90252 -119.87111 34966 ft 445 kts 175°
2026-05-03 20:37 36.84208 -119.85409 34980 ft 445 kts 175°
2026-05-03 20:38 36.78210 -119.83722 34987 ft 445 kts 175°
2026-05-03 20:38 36.72167 -119.82027 34971 ft 445 kts 174°
2026-05-03 20:39 36.66124 -119.80329 34981 ft 445 kts 175°
2026-05-03 20:39 36.60080 -119.78637 34984 ft 445 kts 175°
2026-05-03 20:40 36.54076 -119.76966 34983 ft 445 kts 175°
2026-05-03 20:40 36.48033 -119.75282 34982 ft 445 kts 176°
2026-05-03 20:41 36.41995 -119.73606 34990 ft 445 kts 176°
2026-05-03 20:41 36.35961 -119.71916 34993 ft 445 kts 176°
2026-05-03 20:42 36.29931 -119.70233 34978 ft 444 kts 178°
2026-05-03 20:42 36.23946 -119.68583 34990 ft 443 kts 178°
2026-05-03 20:43 36.17931 -119.66930 34992 ft 443 kts 178°
2026-05-03 20:43 36.11917 -119.65275 34953 ft 442 kts 180°
2026-05-03 20:44 36.05918 -119.63616 34985 ft 441 kts 180°
2026-05-03 20:44 35.99972 -119.62048 34985 ft 433 kts 185°
2026-05-03 20:44 35.97025 -119.61857 34985 ft 416 kts 194°
2026-05-03 20:45 35.94201 -119.62266 34985 ft 405 kts 200°
2026-05-03 20:45 35.88650 -119.63418 34977 ft 404 kts 201°
2026-05-03 20:46 35.83103 -119.64543 34981 ft 403 kts 201°
2026-05-03 20:46 35.77570 -119.65665 34986 ft 403 kts 201°
2026-05-03 20:47 35.72079 -119.66775 34990 ft 402 kts 201°
2026-05-03 20:47 35.66440 -119.67414 34958 ft 424 kts 188°
2026-05-03 20:47 35.63477 -119.66690 34970 ft 448 kts 175°
2026-05-03 20:48 35.60547 -119.65176 34975 ft 460 kts 169°
2026-05-03 20:48 35.54720 -119.61911 34980 ft 460 kts 169°
2026-05-03 20:49 35.48885 -119.58677 34938 ft 460 kts 170°
2026-05-03 20:49 35.43093 -119.55482 34950 ft 460 kts 170°
2026-05-03 20:50 35.37260 -119.52269 34939 ft 460 kts 170°
2026-05-03 20:50 35.31422 -119.49062 34951 ft 460 kts 169°
2026-05-03 20:51 35.25586 -119.45856 34932 ft 460 kts 169°
2026-05-03 20:51 35.19791 -119.42683 34945 ft 459 kts 169°
2026-05-03 20:52 35.13953 -119.39498 34947 ft 460 kts 169°
2026-05-03 20:52 35.08116 -119.36311 34914 ft 459 kts 169°
2026-05-03 20:53 35.02284 -119.33127 34939 ft 459 kts 169°
2026-05-03 20:53 34.96488 -119.29970 34952 ft 459 kts 169°
2026-05-03 20:54 34.90660 -119.26803 34950 ft 459 kts 169°
2026-05-03 20:54 34.81914 -119.22063 34954 ft 459 kts 168°
2026-05-03 20:55 34.79002 -119.20484 34740 ft 458 kts 169°
2026-05-03 20:55 34.76095 -119.18909 34508 ft 457 kts 169°
2026-05-03 20:55 34.73228 -119.17349 34295 ft 458 kts 168°
2026-05-03 20:55 34.70342 -119.15667 34066 ft 462 kts 166°
2026-05-03 20:56 34.67473 -119.13876 33817 ft 465 kts 165°
2026-05-03 20:56 34.64610 -119.12016 33108 ft 470 kts 164°
2026-05-03 20:56 34.61717 -119.10112 32184 ft 475 kts 164°
2026-05-03 20:56 34.58800 -119.08190 31281 ft 479 kts 164°
2026-05-03 20:57 34.55850 -119.06268 30316 ft 484 kts 165°
2026-05-03 20:57 34.52874 -119.04339 29236 ft 488 kts 164°
2026-05-03 20:57 34.49903 -119.02413 28428 ft 477 kts 163°
2026-05-03 20:57 34.47094 -119.00563 28239 ft 454 kts 163°
2026-05-03 20:58 34.44373 -118.98764 27796 ft 436 kts 164°
2026-05-03 20:58 34.41750 -118.97026 27560 ft 428 kts 163°
2026-05-03 20:58 34.39146 -118.95304 27152 ft 426 kts 163°
2026-05-03 20:58 34.36559 -118.93596 26607 ft 422 kts 163°
2026-05-03 20:59 34.33985 -118.91900 26067 ft 420 kts 163°
2026-05-03 20:59 34.31425 -118.90214 25499 ft 418 kts 163°
2026-05-03 20:59 34.28879 -118.88535 24962 ft 416 kts 163°
2026-05-03 20:59 34.26352 -118.86864 24536 ft 412 kts 162°
2026-05-03 21:00 34.23838 -118.85208 24029 ft 408 kts 164°
2026-05-03 21:00 34.23015 -118.84722 23911 ft 402 kts 167°
2026-05-03 21:00 34.18739 -118.82910 23123 ft 389 kts 173°
2026-05-03 21:00 34.16180 -118.81904 22634 ft 386 kts 172°
2026-05-03 21:01 34.13637 -118.80907 22154 ft 383 kts 172°
2026-05-03 21:01 34.11111 -118.79911 21688 ft 380 kts 172°
2026-05-03 21:01 34.08603 -118.78919 21203 ft 378 kts 171°
2026-05-03 21:01 34.06110 -118.77939 20772 ft 375 kts 171°
2026-05-03 21:02 34.03637 -118.76977 20324 ft 372 kts 170°
2026-05-03 21:02 34.01187 -118.76030 19872 ft 369 kts 170°
2026-05-03 21:02 33.98781 -118.75104 19435 ft 366 kts 169°
2026-05-03 21:02 33.96368 -118.74173 18981 ft 363 kts 169°
2026-05-03 21:03 33.93975 -118.73246 18416 ft 359 kts 168°
2026-05-03 21:03 33.91606 -118.72331 17775 ft 356 kts 167°
2026-05-03 21:03 33.89258 -118.71423 17113 ft 353 kts 168°
2026-05-03 21:03 33.86929 -118.70527 16466 ft 350 kts 167°
2026-05-03 21:04 33.84627 -118.69640 15978 ft 344 kts 167°
2026-05-03 21:04 33.82358 -118.68766 15521 ft 341 kts 167°
2026-05-03 21:04 33.80104 -118.67901 15084 ft 339 kts 167°
2026-05-03 21:04 33.77893 -118.67051 14652 ft 337 kts 166°
2026-05-03 21:05 33.75667 -118.66192 14196 ft 335 kts 166°
2026-05-03 21:05 33.73418 -118.65627 13748 ft 328 kts 177°
2026-05-03 21:05 33.71153 -118.65338 13240 ft 326 kts 177°
2026-05-03 21:05 33.68904 -118.65055 12752 ft 324 kts 177°
2026-05-03 21:06 33.66667 -118.64772 12293 ft 322 kts 177°
2026-05-03 21:06 33.64445 -118.64489 11828 ft 320 kts 176°
2026-05-03 21:06 33.62256 -118.64041 11358 ft 321 kts 165°
2026-05-03 21:06 33.60239 -118.62891 10901 ft 324 kts 149°
2026-05-03 21:07 33.58590 -118.61086 10445 ft 328 kts 131°
2026-05-03 21:07 33.57440 -118.58760 10300 ft 320 kts 120°
2026-05-03 21:07 33.56448 -118.56428 10179 ft 308 kts 121°
2026-05-03 21:07 33.55483 -118.54187 10003 ft 299 kts 121°
2026-05-03 21:08 33.54535 -118.51997 9800 ft 293 kts 121°
2026-05-03 21:08 33.53597 -118.49835 9504 ft 291 kts 121°
2026-05-03 21:08 33.52692 -118.47670 9190 ft 291 kts 115°
2026-05-03 21:08 33.52165 -118.45326 8844 ft 293 kts 100°
2026-05-03 21:09 33.52066 -118.42879 8471 ft 294 kts 95°
2026-05-03 21:09 33.52008 -118.40432 8109 ft 293 kts 95°
2026-05-03 21:09 33.51949 -118.37992 7745 ft 292 kts 95°
2026-05-03 21:09 33.51885 -118.35560 7383 ft 291 kts 95°
2026-05-03 21:10 33.51985 -118.33172 7049 ft 292 kts 83°
2026-05-03 21:10 33.52582 -118.30821 6653 ft 295 kts 71°
2026-05-03 21:10 33.53336 -118.28549 6321 ft 292 kts 71°
2026-05-03 21:10 33.54085 -118.26241 5640 ft 302 kts 71°
2026-05-03 21:11 33.54830 -118.23903 5359 ft 297 kts 71°
2026-05-03 21:11 33.55547 -118.21636 5283 ft 285 kts 71°
2026-05-03 21:11 33.56237 -118.19456 5186 ft 275 kts 71°
2026-05-03 21:11 33.56911 -118.17331 4913 ft 271 kts 71°
2026-05-03 21:12 33.57564 -118.15281 4732 ft 263 kts 70°
2026-05-03 21:12 33.58209 -118.13264 4531 ft 256 kts 70°
2026-05-03 21:12 33.58840 -118.11302 4326 ft 249 kts 70°
2026-05-03 21:12 33.59454 -118.09397 4146 ft 242 kts 69°
2026-05-03 21:13 33.60320 -118.07689 4023 ft 240 kts 47°
2026-05-03 21:13 33.61622 -118.06447 3996 ft 241 kts 36°
2026-05-03 21:13 33.63022 -118.05329 3995 ft 241 kts 33°
2026-05-03 21:13 33.64405 -118.04292 3838 ft 229 kts 32°
2026-05-03 21:14 33.65742 -118.03331 3684 ft 225 kts 31°
2026-05-03 21:14 33.67084 -118.02382 3555 ft 224 kts 31°
2026-05-03 21:14 33.68430 -118.01498 3418 ft 225 kts 20°
2026-05-03 21:14 33.69975 -118.01420 3256 ft 219 kts 340°
2026-05-03 21:15 33.71232 -118.02375 3125 ft 213 kts 308°
2026-05-03 21:15 33.72212 -118.03715 2988 ft 214 kts 310°
2026-05-03 21:15 33.73260 -118.04990 2858 ft 215 kts 311°
2026-05-03 21:15 33.74387 -118.06160 2681 ft 214 kts 326°
2026-05-03 21:16 33.75692 -118.06688 2378 ft 201 kts 350°
2026-05-03 21:16 33.76996 -118.06570 2146 ft 177 kts 12°
2026-05-03 21:16 33.78108 -118.06202 1971 ft 162 kts
2026-05-03 21:16 33.79222 -118.06201 1777 ft 158 kts 347°
2026-05-03 21:17 33.80252 -118.06584 1512 ft 152 kts 330°
2026-05-03 21:17 33.80852 -118.07024 1303 ft 148 kts 320°
2026-05-03 21:17 33.81746 -118.08223 1030 ft 146 kts 297°
2026-05-03 21:17 33.82133 -118.09332 835 ft 144 kts 281°
2026-05-03 21:18 33.82260 -118.10511 691 ft 140 kts 267°
2026-05-03 21:18 33.82261 -118.11688 562 ft 142 kts 267°
2026-05-03 21:18 33.82259 -118.12876 380 ft 143 kts 267°
2026-05-03 21:18 33.82282 -118.14075 136 ft 143 kts 265°
2026-05-03 21:19 33.82277 -118.15217 53 ft 125 kts 267°
2026-05-03 21:19 33.82273 -118.15898 63 ft 38 kts 271°
2026-05-03 21:19 33.82276 -118.16094 57 ft 21 kts 270°
2026-05-03 21:19 33.82276 -118.16261 58 ft 10 kts 270°
2026-05-03 21:20 33.82288 -118.16343 59 ft 9 kts 294°
2026-05-03 21:20 33.82275 -118.16359 59 ft 2 kts 146°
2026-05-03 21:20 33.82272 -118.16317 59 ft 7 kts 92°
2026-05-03 21:20 33.82270 -118.16243 62 ft 10 kts 91°
2026-05-03 21:21 33.82269 -118.16147 59 ft 13 kts 88°
2026-05-03 21:21 33.82274 -118.16037 61 ft 14 kts 89°
2026-05-03 21:21 33.82262 -118.15920 57 ft 15 kts 115°
2026-05-03 21:21 33.82193 -118.15826 56 ft 11 kts 134°
2026-05-03 21:22 33.82165 -118.15744 57 ft 4 kts 93°
2026-05-03 21:22 33.82165 -118.15743 57 ft 0 kts 93°